Wind_Speed
51 52 54 54 53 53 54 54 54 53 53 52 51 50 50 51 50 50 50 49 48 48 47 47 46 45 44 42 41 39 39 38 37 37 36 35 34 33
49 50 51 53 53 53 53 53 54 54 53 51 52 51 51 51 52 52 51 51 50 49 48 48 47 46 45 44 42 41 39 39 39 38 37 36 35 34
47 49 51 52 55 54 55 55 56 57 56 54 55 54 54 53 53 53 52 52 50 50 49 48 48 48 47 46 45 43 42 41 40 39 38 37 36 34
48 50 51 52 54 55 55 55 56 57 57 57 57 57 58 57 56 55 54 53 53 52 51 51 51 50 49 48 46 45 44 43 42 41 39 38 37 36
49 51 52 53 55 57 57 57 57 58 59 60 60 60 60 60 59 57 57 56 55 55 54 53 53 52 51 50 48 47 46 45 43 42 42 41 39 38
50 51 53 54 55 57 58 59 60 60 61 61 61 61 61 61 61 61 60 58 57 57 56 55 55 54 54 53 51 49 47 46 45 44 44 42 41 39
51 53 55 56 57 58 59 60 61 62 63 63 62 62 62 62 63 62 62 60 58 57 56 56 56 55 55 54 53 51 49 48 46 46 45 44 42 40
51 53 54 56 58 59 60 61 63 63 63 62 62 62 62 62 63 63 62 61 59 58 58 58 57 56 56 55 54 52 50 49 47 47 46 44 43 41
51 53 55 56 58 59 60 61 61 61 61 62 61 61 62 62 62 63 63 63 62 60 60 59 59 58 56 55 54 53 52 50 48 48 47 45 43 42
53 54 55 56 58 59 59 59 60 60 60 60 61 60 60 62 62 62 61 62 62 61 61 61 59 58 57 56 55 54 53 51 49 48 47 46 44 42
52 53 55 55 56 57 57 58 58 58 59 59 59 59 59 60 62 62 62 62 62 61 60 60 58 57 56 56 55 54 52 51 49 48 48 46 44 42
51 52 53 54 55 56 56 56 56 56 57 57 58 59 59 59 60 61 61 60 60 60 59 58 58 58 56 55 55 54 52 50 48 48 47 45 45 43
52 52 53 54 54 56 56 56 56 56 56 56 56 57 57 58 58 59 60 59 59 58 58 58 57 57 55 54 54 53 51 50 49 48 47 45 44 43
52 52 53 53 54 55 55 55 55 55 54 54 54 55 56 56 57 57 58 58 57 56 55 55 55 54 54 54 54 53 51 50 48 48 47 45 44 43
50 51 51 52 53 53 54 54 54 53 53 53 53 53 54 54 54 54 54 55 54 54 53 53 53 52 51 51 50 50 49 48 47 46 44 43 42 42
48 48 49 50 50 50 51 52 52 52 52 52 51 51 52 52 52 52 53 53 52 51 51 50 50 49 49 48 48 48 48 48 47 45 43 42 42 42
46 47 47 46 46 46 47 48 49 50 51 51 51 51 51 52 51 52 52 52 51 50 49 50 50 50 49 48 47 47 48 48 46 45 43 43 42 43
44 44 43 43 43 43 43 44 46 47 48 49 50 50 50 50 50 50 51 50 49 49 48 47 49 50 50 49 48 47 47 46 45 44 43 43 42 42
43 43 42 42 41 40 41 41 42 43 44 44 45 45 45 45 46 47 48 48 48 47 47 47 46 47 47 46 45 45 45 45 44 43 42 42 41 41
42 41 41 40 39 39 38 38 38 38 37 38 38 39 40 41 41 42 42 43 43 43 43 44 43 43 43 43 43 42 43 42 42 42 42 42 41 41
40 40 39 38 37 37 36 35 34 33 32 32 32 33 34 35 36 38 38 39 40 41 40 40 41 40 40 40 41 41 42 42 41 41 40 40 40 39
38 36 35 35 34 33 32 30 28 28 28 28 28 28 29 30 32 34 35 36 36 37 38 38 39 39 39 40 40 40 40 41 41 40 39 39 38 38
35 33 31 30 29 29 27 25 24 23 23 24 24 24 25 26 28 31 33 33 34 35 36 36 37 37 37 38 39 39 39 40 40 39 38 38 38 38
Wind_Direction
255 256 255 255 257 258 258 259 260 261 260 261 261 259 260 261 262 262 263 263 264 265 267 266 267 269 270 270 271 270 271 271 271 273 275 278 279 280
257 256 257 257 258 259 259 260 261 263 264 262 261 260 260 262 263 264 263 262 262 264 266 266 266 267 268 268 267 268 268 268 269 271 273 275 276 277
258 258 259 259 259 261 261 262 264 265 265 263 262 261 259 260 262 264 263 261 261 262 264 265 266 266 265 266 266 266 266 267 267 270 272 274 275 276
260 260 261 261 261 262 263 265 266 267 266 264 263 262 260 261 261 262 262 262 261 261 262 264 265 264 263 264 264 264 264 264 266 268 269 272 274 275
264 263 263 263 262 262 263 264 265 266 266 265 264 262 261 261 261 261 261 261 262 262 261 262 263 263 262 261 262 262 262 263 265 266 267 269 272 274
266 265 265 265 264 264 264 265 265 265 265 265 265 263 262 261 260 260 261 261 261 261 261 261 262 262 261 260 260 261 262 263 264 265 266 267 268 270
268 267 267 266 266 266 265 264 264 264 265 266 266 264 263 261 260 260 260 260 260 260 260 261 261 261 260 259 260 260 261 261 262 263 264 265 266 267
271 270 269 269 268 267 266 266 266 266 266 266 265 264 263 262 261 260 260 260 259 260 261 261 261 260 260 259 259 259 259 260 260 261 262 263 263 264
274 272 271 271 269 268 267 268 267 267 266 265 264 264 263 262 261 260 259 259 260 260 260 261 260 260 259 258 258 258 258 258 259 259 259 260 260 261
277 275 274 273 272 271 269 268 267 265 264 264 264 263 262 261 260 259 258 258 258 257 258 259 260 259 258 256 255 255 255 256 256 257 257 257 257 258
279 278 277 276 274 273 272 270 267 266 265 264 263 263 262 262 261 260 258 257 257 257 258 258 259 258 256 254 252 252 253 253 254 255 255 255 255 255
279 279 279 278 276 275 273 271 269 267 265 264 263 263 263 262 261 259 258 257 256 256 255 256 257 256 255 253 251 251 251 251 252 254 253 252 252 252
282 281 281 280 278 276 275 273 270 269 267 265 263 262 262 261 260 259 258 255 255 255 255 255 256 255 253 252 249 249 249 250 250 251 251 251 250 250
285 283 282 281 279 277 276 274 272 270 268 266 264 262 261 261 260 259 257 255 255 254 253 253 253 253 252 250 248 248 247 248 249 249 249 249 248 248
288 286 284 282 280 278 276 274 272 269 267 265 264 262 260 259 259 257 256 254 253 252 251 250 250 249 247 246 245 245 245 245 245 246 245 245 247 246
290 288 287 285 283 280 277 273 271 269 267 265 264 262 260 257 256 255 253 251 251 250 248 246 245 245 244 244 244 243 243 243 242 243 243 243 243 242
292 290 288 286 283 281 279 275 272 271 268 266 264 263 260 257 255 254 251 249 249 247 245 243 242 242 242 242 242 241 241 241 241 239 239 240 240 240
296 294 290 288 285 282 280 277 275 273 271 268 266 263 261 258 254 252 249 246 244 242 240 240 240 241 241 241 240 239 239 238 238 238 236 236 237 238
299 296 293 290 287 285 283 280 278 276 274 270 266 262 259 255 252 250 247 243 240 239 237 237 238 238 239 239 237 236 236 235 235 234 233 232 232 233
301 298 296 292 289 287 286 284 281 278 274 270 266 262 257 253 249 245 242 240 238 236 236 234 233 234 234 235 234 233 232 231 231 231 230 229 229 230
304 301 298 295 290 288 288 286 282 277 273 269 266 262 257 251 245 241 238 236 234 233 233 232 231 231 231 231 231 230 228 227 227 227 227 226 228 228
307 304 301 298 295 291 288 285 281 277 273 270 266 261 255 248 242 236 233 231 230 230 229 228 229 229 229 229 228 227 225 223 223 224 224 224 226 227
310 308 305 302 300 294 288 284 281 278 274 269 265 261 254 247 240 234 230 227 227 225 225 226 227 227 227 227 225 223 221 220 221 222 223 223 224 225
Height
5663 5665 5667 5669 5671 5673 5674 5676 5679 5681 5685 5688 5689 5691 5692 5694 5695 5697 5699 5700 5702 5703 5704 5706 5707 5708 5709 5710 5710 5711 5712 5712 5713 5714 5714 5714 5715 5715
5650 5652 5654 5656 5658 5659 5661 5662 5663 5666 5670 5674 5675 5677 5678 5680 5681 5683 5685 5687 5688 5690 5691 5693 5694 5696 5697 5698 5699 5700 5701 5702 5703 5703 5704 5704 5705 5705
5637 5639 5640 5642 5644 5646 5647 5648 5649 5650 5653 5658 5659 5661 5662 5664 5667 5668 5670 5672 5674 5676 5678 5679 5681 5682 5684 5685 5686 5688 5689 5690 5692 5692 5693 5694 5694 5694
5625 5626 5627 5628 5629 5631 5632 5633 5634 5634 5636 5640 5643 5644 5646 5648 5650 5652 5654 5656 5659 5661 5663 5665 5667 5668 5670 5671 5673 5675 5677 5678 5680 5681 5682 5683 5683 5684
5612 5612 5613 5613 5614 5615 5616 5617 5617 5618 5619 5621 5624 5627 5629 5631 5633 5635 5638 5640 5642 5645 5647 5649 5652 5653 5655 5657 5659 5661 5663 5666 5667 5668 5670 5671 5672 5672
5597 5597 5597 5597 5598 5598 5599 5599 5600 5600 5601 5602 5604 5607 5609 5611 5613 5617 5620 5623 5625 5628 5630 5633 5636 5638 5640 5643 5645 5647 5650 5652 5653 5655 5657 5658 5659 5660
5581 5581 5581 5580 5580 5580 5580 5581 5581 5581 5582 5583 5585 5587 5589 5591 5594 5597 5600 5604 5607 5610 5613 5616 5619 5621 5624 5627 5630 5632 5635 5637 5639 5641 5643 5645 5646 5648
5565 5564 5563 5562 5562 5561 5561 5561 5562 5561 5562 5563 5565 5566 5569 5571 5574 5576 5580 5584 5588 5593 5594 5598 5601 5604 5607 5610 5613 5616 5619 5622 5624 5627 5629 5631 5633 5635
5547 5546 5544 5543 5542 5541 5541 5541 5541 5540 5541 5542 5544 5546 5549 5552 5554 5556 5559 5563 5569 5572 5574 5579 5582 5586 5590 5593 5596 5599 5603 5606 5609 5611 5614 5617 5620 5622
5529 5527 5526 5524 5522 5520 5520 5520 5520 5520 5520 5521 5523 5526 5528 5530 5532 5535 5538 5542 5547 5551 5554 5559 5564 5567 5571 5575 5578 5582 5586 5590 5593 5596 5600 5603 5606 5609
5512 5509 5507 5505 5502 5500 5499 5499 5500 5500 5500 5501 5503 5505 5507 5509 5511 5513 5517 5520 5526 5531 5534 5539 5544 5548 5552 5556 5561 5565 5569 5573 5577 5581 5585 5588 5592 5595
5496 5492 5489 5486 5483 5480 5479 5479 5480 5480 5481 5482 5483 5484 5486 5488 5490 5492 5496 5500 5505 5511 5516 5519 5525 5528 5533 5539 5543 5548 5552 5557 5562 5566 5570 5574 5578 5582
5478 5474 5471 5467 5464 5462 5460 5459 5459 5460 5460 5462 5463 5464 5465 5467 5470 5473 5476 5480 5485 5491 5497 5500 5505 5509 5514 5521 5526 5531 5536 5541 5546 5550 5554 5559 5564 5568
5459 5456 5452 5449 5446 5443 5441 5440 5439 5439 5441 5442 5443 5445 5446 5448 5450 5453 5457 5461 5465 5471 5476 5480 5486 5491 5496 5501 5508 5513 5519 5525 5530 5535 5540 5545 5549 5554
5441 5437 5434 5430 5427 5424 5422 5421 5420 5420 5421 5423 5424 5426 5428 5430 5432 5435 5438 5442 5446 5452 5456 5462 5468 5473 5478 5484 5491 5497 5503 5509 5514 5520 5525 5530 5536 5540
5424 5420 5416 5412 5409 5406 5404 5403 5402 5402 5402 5404 5406 5407 5409 5411 5414 5416 5420 5424 5429 5434 5439 5445 5451 5457 5462 5469 5475 5481 5488 5494 5500 5505 5511 5516 5522 5527
5408 5404 5400 5396 5393 5390 5388 5386 5385 5384 5384 5385 5387 5388 5390 5393 5395 5398 5402 5407 5412 5418 5423 5429 5435 5441 5447 5454 5460 5466 5473 5479 5485 5491 5497 5503 5509 5514
5393 5389 5385 5381 5377 5374 5372 5370 5368 5367 5366 5367 5368 5369 5371 5374 5377 5380 5384 5390 5395 5402 5408 5414 5420 5426 5433 5439 5446 5452 5458 5465 5471 5477 5484 5490 5496 5502
5379 5374 5370 5366 5362 5359 5357 5354 5352 5351 5349 5349 5350 5351 5353 5356 5359 5363 5368 5373 5379 5386 5392 5399 5405 5412 5419 5426 5433 5439 5446 5452 5458 5465 5472 5478 5484 5490
5366 5361 5356 5352 5349 5345 5343 5340 5338 5336 5334 5334 5334 5336 5338 5341 5344 5348 5353 5359 5365 5372 5378 5385 5392 5399 5407 5414 5421 5427 5433 5440 5446 5453 5460 5466 5472 5478
5353 5348 5343 5339 5336 5333 5330 5327 5325 5323 5322 5322 5322 5323 5325 5327 5331 5336 5341 5347 5353 5360 5367 5374 5381 5388 5394 5401 5408 5415 5421 5428 5435 5442 5449 5455 5462 5468
5341 5336 5332 5328 5324 5321 5318 5316 5314 5313 5312 5312 5312 5313 5314 5317 5320 5325 5330 5337 5343 5350 5356 5363 5370 5376 5383 5390 5397 5404 5411 5417 5424 5431 5438 5446 5452 5459
5331 5326 5322 5318 5314 5311 5308 5307 5305 5304 5303 5303 5304 5304 5305 5308 5311 5316 5321 5327 5334 5340 5347 5354 5360 5366 5373 5380 5387 5394 5401 5408 5415 5422 5429 5436 5443 5449